NOAA 17 DEB, 49489

Orbit data source: Space-Track

NOAA 17 DEB, 49489 is space debris in SSO originally from a launch on Mon, 24 Jun 2002 UTC launched from the Air Force Western Test Range (AFWTR). Debris objects in space refer to the collection of defunct objects orbiting the Earth. Examples of debris include non-operational satellites, rocket bodies, and fragments generated from explosions, collisions, or faulty payload assembly.

Loading next visibility...
Identifier
49489, 2002-032DT
Orbit
SSO
Country
Flag of USUS
Related business
Manufacturer
Unknown
Mission
Spacecraft
Bus & Motor
Unknown
Mass
Unknown
Launch date (UTC)
2002-06-24 (24 years ago)
Launch vehicle
Unknown
Launch site
Air Force Western Test Range (AFWTR)
Object type
Payload
Rocket body
Debris
Shape & HBR
Unknown shape, 0.1 m
Radar Cross Section
Small (<0.1 m²)

Expand to show TLE details & history
Last TLE update: 2 days ago

TLE from 2 days ago
0 NOAA 17 DEB
1 49489U 02032DT  26171.43203464  .00175062  00000-0  54158-2 0  9990
2 49489  98.7590 241.3045 0014672 284.5956  75.3655 15.32657050258002
Epoch: 2026-06-20T10:22Z
TLE epoch observation values (Epoch: 2026-06-20T10:22:07.792Z)
Latitude
-0.00001°
Longitude
177.12529°
Altitude
468.429 km
Speed
7.633 km/s
True Right ascension
16h 05m 13s
True Declination
0° 00' 00"
Sunlit
Object was in full shadow at epoch
Visualization orbit readout
Latitude
Unknown
Longitude
Unknown
Altitude
Unknown
Speed
Unknown
Apparent Right ascension
Unknown
Apparent Declination
Unknown
Sunlit
N/A
Visualization observer readout
Local Sidereal Time
23:18:19
Azimuth
Unknown
Elevation
Unknown
Doppler factor
Unknown
Orbital elements
Apogee altitude
474.941 km
Perigee altitude
454.861 km
Semi-major axis
6,843.038 km
Eccentricity
0.00147
Inclination
98.759°
RAAN
241.3045°
Arg. of periapsis
284.5956°
True anomaly
75.52825°
Mean anomaly
75.3655°
Eccentric anomaly
75.44687°
Mean motion
3.83416 °/min
Orbital period
93.89 mins
BSTAR
0.0054158
Loading maneuver chart data...
Computing Atmospheric mass density...

Documentation

Showing up to 5 results
|